[[{"header":{"parameterUnit":"m.s-1","parameterCategory":1,"la1":30.2991,"la2":30.254,"lo1":-89.0895,"lo2":-89.0444,"dy":0.0017,"dx":0.0017,"nx":28,"ny":28,"refTime":"2025-01-29T03:00:00:Z","depth":0,"parameterNumber":2,"parameterNumberName":"U-component_of_WINDS"},"data":[0,0,0,0,0,0,0,0,0,0,0,0,0,0,0,0,0,0,0,0,0,0,0,0,0,0,0,0,0,0,0,0,0,0,0,0,0,0,0,0,0,0,0,0,0,0,0,0,0,0,0,0,0,0,0,0,0,0,-0.6777,-0.6776,0,-0.6714,-0.6713,-0.6712,-0.665,-0.6649,-0.6649,-0.6648,-0.6584,-0.6583,-0.6582,0,0,0,0,0,0,0,0,0,0,0,0,0,-0.6846,-0.6845,-0.6777,-0.6776,-0.6775,-0.6714,-0.6713,-0.6712,-0.665,-0.6649,-0.6648,-0.6647,-0.6584,-0.6583,-0.6582,0,0,0,0,0,0,0,0,0,0,0,0,0,-0.6802,-0.6844,-0.6777,-0.6737,-0.6733,-0.6714,-0.6713,-0.6712,-0.6651,-0.6649,-0.6648,-0.6647,-0.6584,-0.6583,-0.6582,-0.6597,0,0,-0.6577,-0.6577,0,0,0,0,0,0,0,0,-0.6805,-0.68,-0.6744,-0.674,-0.6735,-0.6689,-0.6713,-0.6673,-0.6651,-0.6682,-0.6648,-0.6646,-0.662,-0.6615,-0.6606,-0.6594,-0.6591,-0.6577,-0.6576,-0.6576,-0.6575,0,0,0,0,0,0,0,-0.6808,-0.6802,-0.6752,-0.6743,-0.6738,-0.6723,-0.6715,-0.6706,-0.6658,-0.6679,-0.6674,-0.6668,-0.6617,-0.6608,-0.6604,-0.659,-0.6577,-0.6576,-0.6575,-0.6574,-0.6588,-0.6589,0,0,0,0,0,0,-0.6817,-0.6805,-0.6754,-0.675,-0.6768,-0.6723,-0.6714,-0.6705,-0.6658,-0.665,-0.6669,-0.6665,-0.6611,-0.6606,-0.6602,-0.6617,-0.6576,-0.6574,-0.6573,-0.6587,-0.6588,-0.659,0,0,0,0,0,0,-0.6819,-0.6813,-0.6756,-0.6776,-0.6768,-0.6723,-0.6713,-0.6704,-0.6695,-0.665,-0.6642,-0.6668,-0.6609,-0.6604,-0.6599,-0.6613,-0.6574,-0.6572,-0.6585,-0.6587,-0.6589,-0.6647,0,0,0,0,0,0,-0.6821,-0.6814,-0.6819,-0.6777,-0.6767,-0.6754,-0.6713,-0.6704,-0.6692,-0.6687,-0.6647,-0.664,-0.6608,-0.6601,-0.6597,-0.6611,-0.6571,-0.6584,-0.6586,-0.6588,-0.6643,-0.6651,-0.6657,0,0,0,0,0,-0.6824,-0.6838,-0.682,-0.6814,-0.6773,-0.6755,-0.675,-0.6713,-0.6694,-0.6699,-0.667,-0.6641,-0.6613,-0.6601,-0.6596,-0.661,-0.6583,-0.6585,-0.6588,-0.6641,-0.6649,-0.6656,0,0,0,0,0,0,-0.6883,-0.6832,-0.6811,-0.6812,-0.6789,-0.6745,-0.675,-0.6723,-0.6705,-0.6701,-0.6656,-0.6648,-0.6648,-0.6628,-0.6616,-0.6622,-0.6593,-0.6595,-0.6635,-0.6643,-0.6649,-0.6654,-0.657,0,0,0,0,0,-0.6897,-0.6887,-0.6842,-0.6848,-0.6837,-0.6796,-0.6787,-0.6761,-0.6735,-0.6724,-0.6696,-0.6672,-0.6658,-0.6649,-0.6633,-0.664,-0.6631,-0.6647,-0.6654,-0.6659,-0.6662,-0.6664,-0.6671,-0.6599,-0.6599,-0.6598,0,0,-0.6924,-0.6895,-0.6891,-0.6859,-0.6838,-0.6829,-0.6788,-0.678,-0.6773,-0.6723,-0.6717,-0.6695,-0.6665,-0.6667,-0.6666,-0.665,-0.668,-0.6663,-0.6668,-0.6667,-0.6668,-0.6675,-0.6681,-0.66,-0.66,-0.66,0,0,-0.6969,-0.6946,-0.6948,-0.6928,-0.6896,-0.6868,-0.6869,-0.683,-0.6813,-0.6806,-0.6769,-0.676,-0.6736,-0.6717,-0.6704,-0.6742,-0.6715,-0.6739,-0.6773,-0.6776,-0.6781,-0.6786,-0.68,-0.6806,-0.6741,-0.6741,-0.6741,0,-0.7007,-0.6992,-0.6953,-0.6947,-0.6934,-0.6889,-0.6891,-0.6873,-0.6838,-0.683,-0.6813,-0.6783,-0.676,-0.6756,-0.6765,-0.6756,-0.6756,-0.6743,-0.6784,-0.6788,-0.6792,-0.6805,-0.681,-0.6744,-0.6744,-0.6743,-0.6743,0,-0.7041,-0.7031,-0.7036,-0.7004,-0.6991,-0.699,-0.695,-0.6943,-0.6918,-0.6892,-0.6886,-0.6856,-0.6834,-0.6831,-0.6807,-0.6824,-0.6816,-0.6792,-0.6762,-0.6803,-0.6814,-0.6819,-0.6749,-0.6747,-0.6747,-0.6746,0,0,-0.7121,-0.7067,-0.707,-0.7055,-0.7017,-0.7008,-0.7005,-0.6983,-0.6977,-0.6955,-0.6951,-0.6932,-0.691,-0.6896,-0.6869,-0.6871,-0.6904,-0.6847,-0.6846,-0.6859,-0.6922,-0.694,-0.6947,-0.6886,-0.6887,-0.6887,-0.6925,0,-0.716,-0.7151,-0.7116,-0.7117,-0.7108,-0.7065,-0.7062,-0.7038,-0.7015,-0.7003,-0.6977,-0.6965,-0.6936,-0.6927,-0.6928,-0.69,-0.6916,-0.6897,-0.6882,-0.6882,-0.6891,-0.6952,-0.6971,-0.7008,-0.6929,-0.6929,-0.693,0,-0.7204,-0.7185,-0.7186,-0.7148,-0.7143,-0.7141,-0.7118,-0.7108,-0.708,-0.7063,-0.7047,-0.7017,-0.7011,-0.6984,-0.6976,-0.6963,-0.6955,-0.6941,-0.6941,-0.6938,-0.6909,-0.6951,-0.7019,-0.7025,-0.6936,-0.6936,-0.6935,0,-0.7264,-0.7237,-0.7234,-0.7223,-0.7179,-0.7179,-0.716,-0.7132,-0.7121,-0.7101,-0.7094,-0.7074,-0.7064,-0.7049,-0.7015,-0.6998,-0.7011,-0.698,-0.6996,-0.6997,-0.7001,-0.7001,-0.7068,-0.6996,-0.6996,-0.6995,-0.6995,0,-0.7311,-0.7313,-0.726,-0.7259,-0.726,-0.7219,-0.7222,-0.7199,-0.7175,-0.7168,-0.713,-0.7124,-0.7079,-0.7069,-0.7042,-0.7039,-0.7035,-0.7021,-0.7014,-0.7024,-0.7026,-0.7018,-0.7015,-0.6997,-0.6996,-0.6996,-0.6996,0,-0.7377,-0.7342,-0.7336,-0.7295,-0.7285,-0.7288,-0.7253,-0.725,-0.7224,-0.7216,-0.7212,-0.7171,-0.7157,-0.7121,-0.7098,-0.708,-0.7085,-0.7071,-0.7094,-0.7089,-0.7108,-0.7107,-0.7172,-0.7179,-0.7102,-0.7103,-0.7104,0,-0.7409,-0.741,-0.7369,-0.7362,-0.7346,-0.7334,-0.7323,-0.7284,-0.7274,-0.7243,-0.7244,-0.7227,-0.7211,-0.719,-0.7159,-0.7141,-0.7127,-0.7151,-0.7124,-0.7135,-0.7127,-0.7128,-0.7128,-0.7157,-0.7158,-0.7159,-0.716,0,-0.7471,-0.7454,-0.7439,-0.7419,-0.7406,-0.7388,-0.7368,-0.7365,-0.732,-0.7311,-0.7296,-0.7284,-0.726,-0.7243,-0.7221,-0.7202,-0.7174,-0.7168,-0.7171,-0.7182,-0.7195,-0.7189,-0.711,-0.7167,-0.7166,-0.7166,-0.7165,-0.7165,-0.7521,-0.752,-0.7491,-0.7476,-0.7457,-0.7439,-0.7434,-0.7408,-0.7395,-0.7372,-0.735,-0.7337,-0.731,-0.7277,-0.726,-0.725,-0.7235,-0.7239,-0.724,-0.7242,-0.7247,-0.7197,-0.7246,-0.7245,-0.7245,-0.7245,-0.7245,0,-0.7581,-0.756,-0.7547,-0.752,-0.7509,-0.7483,-0.7459,-0.7452,-0.7441,-0.7418,-0.7403,-0.7387,-0.7371,-0.7338,-0.7319,-0.7318,-0.7304,-0.7314,-0.7314,-0.731,-0.7261,-0.7261,-0.7325,-0.7325,-0.7325,-0.7325,-0.7325,-0.7325,-0.761,-0.7607,-0.7586,-0.7573,-0.7553,-0.754,-0.7529,-0.7512,-0.7494,-0.7477,-0.7463,-0.7442,-0.7416,-0.7395,-0.7379,-0.737,-0.7365,-0.7379,-0.7366,-0.7321,-0.7313,-0.7306,-0.7306,-0.7379,-0.7379,-0.7416,-0.7416,-0.7416]},{"header":{"parameterUnit":"m.s-1","parameterCategory":1,"la1":30.2991,"la2":30.254,"lo1":-89.0895,"lo2":-89.0444,"dy":0.0017,"dx":0.0017,"nx":28,"ny":28,"refTime":"2025-01-29T03:00:00:Z","depth":0,"parameterNumber":3,"parameterNumberName":"V-component_of_WINDS"},"data":[0,0,0,0,0,0,0,0,0,0,0,0,0,0,0,0,0,0,0,0,0,0,0,0,0,0,0,0,0,0,0,0,0,0,0,0,0,0,0,0,0,0,0,0,0,0,0,0,0,0,0,0,0,0,0,0,0,0,0.5725,0.5725,0,0.5748,0.5748,0.5748,0.5791,0.5792,0.5793,0.5793,0.5815,0.5815,0.5815,0,0,0,0,0,0,0,0,0,0,0,0,0,0.5719,0.5719,0.5725,0.5725,0.5726,0.5747,0.5748,0.5748,0.5791,0.5792,0.5793,0.5794,0.5815,0.5815,0.5815,0,0,0,0,0,0,0,0,0,0,0,0,0,0.5729,0.5719,0.5725,0.575,0.5752,0.5747,0.5748,0.5748,0.5791,0.5792,0.5793,0.5794,0.5815,0.5815,0.5815,0.5787,0,0,0.5814,0.5813,0,0,0,0,0,0,0,0,0.5729,0.5729,0.5746,0.5748,0.5751,0.5768,0.5753,0.5761,0.579,0.5776,0.5794,0.5795,0.5798,0.5799,0.5801,0.5788,0.5789,0.5814,0.5813,0.5813,0.5813,0,0,0,0,0,0,0,0.5728,0.5729,0.5734,0.5746,0.5749,0.5759,0.5762,0.5755,0.578,0.5777,0.5781,0.5783,0.58,0.5801,0.5802,0.5789,0.5814,0.5813,0.5813,0.5813,0.5756,0.5755,0,0,0,0,0,0,0.5724,0.5728,0.5733,0.5735,0.5743,0.5758,0.5762,0.5761,0.578,0.5784,0.5782,0.5785,0.5801,0.5802,0.5802,0.5772,0.5813,0.5813,0.5813,0.5757,0.5756,0.5754,0,0,0,0,0,0,0.5723,0.5724,0.5732,0.5732,0.5734,0.5757,0.5756,0.5761,0.5762,0.5783,0.5788,0.5778,0.5802,0.5803,0.5791,0.5773,0.5813,0.5812,0.5759,0.5757,0.5755,0.571,0,0,0,0,0,0,0.5723,0.5723,0.5713,0.5732,0.5734,0.572,0.5755,0.576,0.5762,0.5766,0.5781,0.5785,0.5803,0.5791,0.5791,0.5773,0.5812,0.5761,0.5758,0.5756,0.5713,0.5707,0.5701,0,0,0,0,0,0.5723,0.5699,0.5713,0.5713,0.5722,0.5719,0.5721,0.5742,0.576,0.575,0.5764,0.5784,0.5775,0.5789,0.5789,0.5772,0.5762,0.5759,0.5756,0.5716,0.5708,0.5701,0,0,0,0,0,0,0.5678,0.5702,0.5717,0.5699,0.5707,0.5727,0.5715,0.5733,0.5736,0.5739,0.5766,0.5769,0.5753,0.5761,0.5777,0.5746,0.5772,0.5769,0.5742,0.5734,0.5728,0.5727,0.5812,0,0,0,0,0,0.5666,0.5662,0.5684,0.5666,0.5669,0.5691,0.5691,0.5707,0.5716,0.5719,0.5732,0.5739,0.5738,0.5737,0.5737,0.5715,0.5719,0.5703,0.5697,0.5692,0.5688,0.5677,0.5671,0.5744,0.5744,0.5745,0,0,0.5642,0.5654,0.565,0.5657,0.5665,0.566,0.5694,0.5687,0.5684,0.5718,0.5707,0.5717,0.5727,0.571,0.5703,0.5716,0.5669,0.5688,0.5684,0.5683,0.5674,0.5667,0.566,0.5742,0.5743,0.5743,0,0,0.5594,0.5604,0.559,0.5597,0.5609,0.5624,0.5621,0.5638,0.5645,0.5635,0.5661,0.5657,0.5655,0.5661,0.5664,0.5619,0.5638,0.5618,0.5587,0.5576,0.557,0.5565,0.5549,0.5543,0.5615,0.5615,0.5615,0,0.5562,0.5556,0.558,0.5573,0.5575,0.5606,0.5592,0.5598,0.5609,0.561,0.5625,0.5622,0.5631,0.5616,0.5605,0.5606,0.5603,0.5617,0.5569,0.5564,0.556,0.5545,0.5539,0.5613,0.5613,0.5613,0.5613,0,0.5516,0.5512,0.5499,0.5509,0.551,0.5499,0.5522,0.552,0.5536,0.5549,0.5538,0.555,0.5553,0.5551,0.5566,0.5538,0.5546,0.5564,0.559,0.555,0.5536,0.5531,0.5609,0.561,0.5611,0.5611,0,0,0.5441,0.5465,0.546,0.5465,0.5481,0.5477,0.5468,0.5471,0.5469,0.5476,0.5468,0.5465,0.5483,0.5486,0.5503,0.5493,0.5457,0.5513,0.5513,0.5502,0.5426,0.5411,0.5404,0.547,0.5469,0.5468,0.5425,0,0.5397,0.5382,0.5404,0.5384,0.5381,0.541,0.5402,0.541,0.5423,0.5421,0.5434,0.5432,0.5455,0.5457,0.5449,0.5463,0.5442,0.5466,0.5463,0.5462,0.5459,0.5397,0.5382,0.5341,0.542,0.5419,0.5418,0,0.5343,0.5348,0.5328,0.5345,0.5344,0.5336,0.5341,0.5339,0.5349,0.5359,0.5362,0.5382,0.5374,0.5399,0.5388,0.5404,0.5404,0.541,0.5409,0.541,0.5437,0.5395,0.5328,0.5322,0.541,0.5411,0.5411,0,0.529,0.5291,0.528,0.5283,0.5302,0.5296,0.5304,0.5315,0.5316,0.532,0.5321,0.5324,0.5326,0.5328,0.5348,0.5364,0.5334,0.5361,0.5341,0.5341,0.5333,0.5333,0.5264,0.5333,0.5333,0.5333,0.5334,0,0.5239,0.5225,0.5256,0.5249,0.5235,0.526,0.5245,0.5256,0.5265,0.5261,0.5287,0.5281,0.5308,0.5306,0.5321,0.531,0.531,0.5317,0.5322,0.5315,0.5314,0.5315,0.5318,0.5332,0.5332,0.5333,0.5333,0,0.5177,0.5197,0.5186,0.5206,0.521,0.5199,0.5215,0.5209,0.5223,0.5217,0.5217,0.5238,0.5237,0.5257,0.526,0.527,0.5251,0.5261,0.5248,0.5251,0.523,0.5231,0.5159,0.5151,0.5225,0.5224,0.5223,0,0.5143,0.5133,0.5152,0.515,0.5157,0.5155,0.5156,0.518,0.518,0.5191,0.5183,0.5184,0.5186,0.5182,0.5198,0.52,0.521,0.5184,0.521,0.5204,0.5209,0.5209,0.5208,0.5179,0.5178,0.5177,0.5176,0,0.5079,0.509,0.5091,0.5095,0.5096,0.51,0.5106,0.5104,0.513,0.5129,0.5128,0.5129,0.5132,0.5132,0.5137,0.5145,0.5165,0.5168,0.5164,0.5157,0.5149,0.5153,0.5233,0.517,0.517,0.5171,0.5171,0.5171,0.503,0.5023,0.5035,0.5035,0.5043,0.5048,0.5043,0.5057,0.5056,0.5061,0.5075,0.5072,0.5082,0.5091,0.5097,0.5094,0.5107,0.51,0.5099,0.5096,0.5093,0.515,0.5095,0.5096,0.5096,0.5096,0.5096,0,0.4968,0.4978,0.4978,0.4985,0.4985,0.5005,0.5012,0.5011,0.5008,0.5016,0.5017,0.5016,0.5017,0.5033,0.5035,0.503,0.5039,0.503,0.503,0.5032,0.5081,0.5085,0.5023,0.5023,0.5023,0.5023,0.5023,0.5023,0.4936,0.4925,0.4937,0.493,0.494,0.4937,0.4939,0.4944,0.4951,0.4949,0.4949,0.496,0.4971,0.4975,0.4976,0.4981,0.498,0.4968,0.4975,0.5021,0.5028,0.5035,0.5039,0.4968,0.4968,0.4926,0.4926,0.4926]}]]